sat.trackr.live / text

‹ back to catalog

STARLINK-36119

NORAD 67619 · 2026-020C

PAYLOAD ACTIVE UNKNOWN

§ Identity

Operator
Country
US
Launch date
2026-01-30
Launch site
AFETR
Launch vehicle
Mass (kg)
RCS (m²)

Purposes: comms

External: N2YO · Heavens-Above · Gunter

§ Orbital elements

Epoch: 2026-09-19T21:41:48.738048Z

Period
94.27 min
Inclination
43.0003°
Eccentricity
0.0001110
Mean motion
15.27591122 rev/d
Perigee alt
482.3 km
Apogee alt
483.8 km
Semi-major
6,861.2 km
B*
3.5679e-4
RAAN
123.1848°
Arg perigee
284.6645°
Mean anomaly
75.4084°
Rev number
3,581

§ Raw data

STARLINK-361191 67619U 26020C   26262.90403632  .00009572  00000+0  35679-3 0  99992 67619  43.0003 123.1848 0001110 284.6645  75.4084 15.27591122 35816

JSON: /api/v1/satellites/67619 · /tle

For live sub-satellite position, see the globe view (requires WebGL).

§ Visibility from observer

Set your observer location to see the next 7 days of passes ≥ 10°. The values pass through the URL so the page stays shareable.

No JS? Fill the form by hand. The geolocation button needs JavaScript.